User: anonymous
Location: Caltech
(34.1382°N, 118.1253°W)
Time: 00:58:15
(UTC-07:00)
Language:

Cosmos 1508 Rocket - Orbit

View from above orbital plane
View from above orbital plane
View from above satellite
View from above satellite

Ground track
Ground track

The orbit data is extracted from the following two-line orbital elements,

1 14484U 83111B   14294.83207101  .00070093  00000-0  89434-3 0  6747
2 14484 082.8394 205.9580 0186827 176.8349 272.7285 15.40966501591999
Epoch (UTC): 21 October 2014 19:58:10
Eccentricity: 0.0186827
inclination: 82.8394°
perigee height: 316 km
apogee height: 571 km
right ascension of ascending node: 205.9580°
argument of perigee: 176.8349°
revolutions per day: 15.40966501
mean anomaly at epoch: 272.7285°
orbit number at epoch: 59199

The dashed part of the orbit path shows where the satellite is in the earth's shadow,  

DLR